[[[{"header":{"parameterUnit":"kt","parameterCategory":2,"dx":1,"dy":1,"la1":30.253999710083008,"la2":30.299108505249023,"lo1":-89.0895004272461,"lo2":-89.04439544677734,"nx":28,"ny":28,"refTime":"2022-10-19T21:00:00:Z","depth":0,"parameterNumber":1,"parameterNumberName":"U-component_of_WINDS"},"data":[-2.3611,-2.3699,-2.378,-2.3919,-2.4016,-2.4126,-2.4191,-2.4285,-2.4381,-2.4522,-2.4619,-2.4711,-2.484,-2.4977,-2.5086,-2.5126,-2.5166,-2.5138,-2.5189,-2.5238,-2.5251,-2.5262,-2.5246,-2.5146,-2.5146,-2.5126,-2.5125,-2.5125,-2.3641,-2.3737,-2.3834,-2.3983,-2.4068,-2.4144,-2.427,-2.4336,-2.4432,-2.4551,-2.465,-2.4782,-2.4898,-2.504,-2.5165,-2.521,-2.5254,-2.5238,-2.5236,-2.5255,-2.5311,-2.5293,-2.5201,-2.5201,-2.5201,-2.5201,-2.5201,-2.5201,-2.3717,-2.3767,-2.3905,-2.4012,-2.411,-2.4209,-2.4272,-2.4384,-2.4481,-2.462,-2.47,-2.4812,-2.4947,-2.5139,-2.5224,-2.5315,-2.5347,-2.5356,-2.5359,-2.5358,-2.5347,-2.5364,-2.534,-2.5341,-2.5342,-2.5342,-2.5342,0,-2.3798,-2.3863,-2.3962,-2.4085,-2.4168,-2.4271,-2.4381,-2.4422,-2.4589,-2.4662,-2.4776,-2.4856,-2.5014,-2.5131,-2.5267,-2.5355,-2.5442,-2.5461,-2.5468,-2.5429,-2.5377,-2.5405,-2.5492,-2.546,-2.5462,-2.5463,-2.5463,-2.5464,-2.3881,-2.3929,-2.4114,-2.4172,-2.4252,-2.4344,-2.4417,-2.456,-2.4631,-2.4787,-2.4825,-2.4945,-2.5047,-2.5217,-2.5349,-2.5468,-2.5511,-2.549,-2.553,-2.5491,-2.5511,-2.5506,-2.5512,-2.5478,-2.5476,-2.5475,-2.5474,0,-2.3919,-2.4053,-2.4155,-2.4333,-2.438,-2.4424,-2.4577,-2.4634,-2.4737,-2.483,-2.486,-2.5022,-2.5132,-2.5268,-2.5422,-2.549,-2.5567,-2.5607,-2.5521,-2.5536,-2.553,-2.5528,-2.549,-2.5492,-2.5598,-2.5597,-2.5596,0,-2.4042,-2.41,-2.4296,-2.4348,-2.4419,-2.4562,-2.4628,-2.4723,-2.4842,-2.4916,-2.5037,-2.5104,-2.5269,-2.5357,-2.5457,-2.5545,-2.5574,-2.5631,-2.5657,-2.5619,-2.5612,-2.5658,-2.5662,-2.5714,-2.5714,-2.5714,-2.5714,0,-2.4087,-2.4261,-2.4347,-2.4408,-2.4604,-2.4641,-2.4725,-2.4859,-2.4929,-2.5042,-2.5089,-2.521,-2.5276,-2.5368,-2.5495,-2.5517,-2.5606,-2.5662,-2.5664,-2.5661,-2.5675,-2.5672,-2.5605,-2.5714,-2.5714,-2.5714,-2.5714,0,-2.4206,-2.4315,-2.4419,-2.4586,-2.4626,-2.4683,-2.4811,-2.4892,-2.5024,-2.5091,-2.5181,-2.5278,-2.5365,-2.5411,-2.5535,-2.5527,-2.5586,-2.5649,-2.5652,-2.5667,-2.5714,-2.5656,-2.5579,-2.5576,-2.5682,-2.5682,-2.5682,0,-2.422,-2.4361,-2.4485,-2.4581,-2.4665,-2.4795,-2.4861,-2.4975,-2.507,-2.5156,-2.5262,-2.5358,-2.5422,-2.5471,-2.5515,-2.5627,-2.5637,-2.563,-2.5753,-2.5756,-2.5712,-2.5644,-2.5597,-2.5581,-2.568,-2.568,-2.5681,0,-2.4248,-2.4486,-2.4494,-2.457,-2.4742,-2.4814,-2.4889,-2.5017,-2.5067,-2.5182,-2.5249,-2.539,-2.5443,-2.5523,-2.5614,-2.5652,-2.5635,-2.5705,-2.571,-2.5687,-2.5691,-2.5647,-2.5643,-2.5688,-2.5689,-2.5689,-2.5679,0,-2.4396,-2.4484,-2.4513,-2.4675,-2.4752,-2.482,-2.4964,-2.5026,-2.5106,-2.5204,-2.5307,-2.5436,-2.5566,-2.5599,-2.5677,-2.572,-2.5734,-2.5789,-2.5843,-2.5797,-2.5797,-2.5798,-2.5831,-2.5833,-2.5835,-2.5837,0,0,-2.4377,-2.4506,-2.4638,-2.4717,-2.4789,-2.4923,-2.4983,-2.5069,-2.524,-2.5288,-2.5319,-2.5534,-2.5637,-2.5746,-2.5743,-2.5795,-2.5816,-2.5826,-2.5818,-2.5815,-2.5813,-2.5811,-2.5809,-2.5841,-2.5842,-2.5842,-2.5843,0,-2.446,-2.4562,-2.4619,-2.4715,-2.4861,-2.4962,-2.4975,-2.5144,-2.521,-2.531,-2.5419,-2.5498,-2.5665,-2.576,-2.583,-2.5817,-2.5895,-2.5846,-2.5791,-2.5834,-2.5828,-2.5824,-2.582,-2.5816,-2.5848,-2.5848,-2.5847,0,-2.4513,-2.4637,-2.468,-2.4851,-2.4948,-2.5031,-2.5123,-2.5207,-2.527,-2.5412,-2.5509,-2.56,-2.574,-2.5824,-2.5867,-2.5896,-2.5958,-2.5964,-2.5955,-2.5963,-2.6012,-2.6005,-2.5998,-2.6078,-2.6078,-2.6079,0,0,-2.4565,-2.4648,-2.4825,-2.4879,-2.4933,-2.5084,-2.5143,-2.5229,-2.5351,-2.5399,-2.5517,-2.5633,-2.5732,-2.5794,-2.5895,-2.5966,-2.6007,-2.5986,-2.5976,-2.5966,-2.5968,-2.6014,-2.6007,-2.6079,-2.6079,-2.6079,0,0,-2.4591,-2.4798,-2.4857,-2.4938,-2.505,-2.5228,-2.5256,-2.5333,-2.5438,-2.5446,-2.5595,-2.5633,-2.5714,-2.5799,-2.5792,-2.5916,-2.5967,-2.5972,-2.5857,-2.5846,-2.5835,-2.5813,-2.5904,0,0,0,0,0,-2.475,-2.4773,-2.4824,-2.4859,-2.5076,-2.52,-2.5229,-2.5352,-2.5385,-2.5405,-2.5516,-2.5595,-2.5826,-2.5824,-2.5857,-2.5862,-2.6089,-2.6088,-2.6086,-2.5957,-2.5943,-2.5931,0,0,0,0,0,0,-2.4765,-2.4807,-2.4824,-2.5001,-2.5051,-2.52,-2.5284,-2.5318,-2.5386,-2.54,-2.5571,-2.5601,-2.5709,-2.5816,-2.5843,-2.5846,-2.5895,-2.6089,-2.6087,-2.6086,-2.5952,-2.5941,-2.5931,0,0,0,0,0,-2.4777,-2.4811,-2.5126,-2.5002,-2.5045,-2.5215,-2.5284,-2.5313,-2.5368,-2.554,-2.5572,-2.5455,-2.5705,-2.5737,-2.5833,-2.583,-2.5877,-2.5887,-2.6088,-2.6086,-2.6085,-2.5946,0,0,0,0,0,0,-2.4786,-2.484,-2.5138,-2.5156,-2.5002,-2.5209,-2.5246,-2.5308,-2.5507,-2.5539,-2.5432,-2.544,-2.5703,-2.5728,-2.5752,-2.5818,-2.5862,-2.5872,-2.5878,-2.6087,-2.6086,-2.6085,0,0,0,0,0,0,-2.4822,-2.4854,-2.5147,-2.514,-2.5159,-2.5203,-2.5235,-2.5335,-2.5508,-2.5388,-2.5401,-2.5433,-2.5668,-2.5722,-2.5741,-2.5891,-2.5851,-2.586,-2.5867,-2.5871,-2.6086,-2.6085,0,0,0,0,0,0,-2.4838,-2.4865,-2.5137,-2.5151,-2.5167,-2.5377,-2.5293,-2.5508,-2.5501,-2.5377,-2.5504,-2.5505,-2.5659,-2.5681,-2.5733,-2.5874,-2.5887,-2.5851,-2.5858,-2.5862,-2.5865,0,0,0,0,0,0,0,-2.485,-2.4638,-2.5031,-2.5159,-2.5173,-2.5321,-2.5326,-2.5331,-2.5501,-2.5502,-2.5504,-2.5505,-2.5796,-2.5806,-2.5817,-2.586,0,0,-2.585,-2.5855,0,0,0,0,0,0,0,0,-2.463,-2.4636,-2.5032,-2.5036,-2.5039,-2.5322,-2.5326,-2.533,-2.5501,-2.5502,-2.5503,-2.5504,-2.5799,-2.5807,-2.5816,0,0,0,0,0,0,0,0,0,0,0,0,0,0,0,-2.5032,-2.5035,0,-2.5322,-2.5326,-2.5329,-2.5502,-2.5502,-2.5503,-2.5504,-2.5801,-2.5808,-2.5815,0,0,0,0,0,0,0,0,0,0,0,0,0,0,0,0,0,0,0,0,0,0,0,0,0,0,0,0,0,0,0,0,0,0,0,0,0,0,0,0,0,0,0,0,0,0,0,0,0,0,0,0,0,0,0,0,0,0,0,0,0,0,0,0,0,0,0,0,0]}],[{"header":{"parameterUnit":"kt","parameterCategory":2,"dx":1,"dy":1,"la1":30.253999710083008,"la2":30.299108505249023,"lo1":-89.0895004272461,"lo2":-89.04439544677734,"nx":28,"ny":28,"refTime":"2022-10-19T21:00:00:Z","depth":0,"parameterNumber":2,"parameterNumberName":"V-component_of_WINDS"},"data":[1.4812,1.4739,1.4728,1.4638,1.4613,1.4549,1.4522,1.4486,1.4454,1.4374,1.4326,1.4305,1.4266,1.4203,1.4148,1.414,1.4116,1.4099,1.4091,1.4182,1.4194,1.4205,1.4222,1.4095,1.4095,1.3998,1.3997,1.3996,1.4881,1.4857,1.4806,1.475,1.4706,1.4717,1.4672,1.4634,1.4575,1.4535,1.4486,1.4414,1.4354,1.432,1.4259,1.4222,1.4222,1.4206,1.4207,1.4201,1.4298,1.4317,1.4207,1.4208,1.4208,1.4208,1.4208,1.4208,1.5004,1.496,1.492,1.4865,1.4833,1.4795,1.475,1.4727,1.4676,1.4614,1.4609,1.4541,1.4496,1.4416,1.4386,1.4331,1.4345,1.4323,1.4317,1.4311,1.4307,1.4446,1.432,1.432,1.432,1.4321,1.4321,0,1.5089,1.5084,1.5035,1.4982,1.4941,1.4898,1.4857,1.4829,1.481,1.4768,1.4705,1.4667,1.459,1.4527,1.4467,1.4439,1.4442,1.4441,1.4425,1.4426,1.4435,1.4428,1.4586,1.4444,1.4445,1.4445,1.4446,1.4446,1.5211,1.5161,1.5114,1.5081,1.5056,1.5001,1.4966,1.4953,1.4916,1.4862,1.4822,1.4761,1.471,1.4609,1.4578,1.4519,1.4519,1.4466,1.451,1.4514,1.4516,1.4518,1.4513,1.4457,1.4456,1.4455,1.4454,0,1.528,1.5263,1.5182,1.5139,1.5126,1.5074,1.5036,1.499,1.4972,1.4905,1.4889,1.4858,1.4796,1.4773,1.4696,1.4686,1.4595,1.4597,1.4611,1.4609,1.4558,1.4563,1.4399,1.4377,1.4511,1.451,1.4509,0,1.5376,1.531,1.5288,1.5241,1.5168,1.5157,1.5084,1.5061,1.5023,1.4971,1.4973,1.4923,1.4903,1.4849,1.4834,1.4756,1.4741,1.4728,1.4724,1.4726,1.4728,1.4703,1.4708,1.472,1.472,1.4721,1.4722,0,1.5485,1.5396,1.5321,1.5298,1.5244,1.5208,1.5184,1.5141,1.5106,1.5057,1.5033,1.4976,1.4944,1.4898,1.4879,1.4909,1.4783,1.4821,1.4769,1.477,1.474,1.4742,1.4606,1.4723,1.4723,1.4723,1.4724,0,1.5558,1.5512,1.5407,1.5362,1.5339,1.5289,1.5233,1.5185,1.514,1.5128,1.5088,1.5085,1.5017,1.5056,1.496,1.5005,1.4972,1.4954,1.495,1.494,1.4983,1.4907,1.4782,1.4766,1.4934,1.4936,1.4937,0,1.5687,1.5576,1.5566,1.5465,1.5411,1.5418,1.5362,1.5322,1.5301,1.525,1.5227,1.5167,1.5192,1.517,1.5126,1.5097,1.5039,1.5105,1.5026,1.5023,1.5037,1.4922,1.4908,1.4812,1.4959,1.4957,1.4955,0,1.5785,1.5722,1.5704,1.5677,1.5624,1.5577,1.5513,1.5453,1.542,1.5374,1.5318,1.5235,1.525,1.5213,1.5204,1.5159,1.5078,1.5179,1.5178,1.5161,1.4969,1.4956,1.494,1.5081,1.5079,1.5076,1.4973,0,1.5898,1.584,1.5793,1.5733,1.5694,1.563,1.5608,1.557,1.5567,1.5547,1.5464,1.5423,1.5358,1.5334,1.5329,1.5234,1.5246,1.5261,1.5295,1.5221,1.5186,1.5171,1.535,1.535,1.5351,1.5352,0,0,1.6025,1.5942,1.5932,1.587,1.5837,1.5844,1.5777,1.5744,1.5678,1.5653,1.5673,1.5549,1.5513,1.5414,1.539,1.5363,1.5343,1.537,1.5257,1.5246,1.5236,1.52,1.5185,1.5353,1.5353,1.5354,1.5354,0,1.6062,1.6032,1.5967,1.5934,1.5885,1.5867,1.5851,1.5802,1.5786,1.5705,1.5709,1.5656,1.5556,1.5518,1.5486,1.5383,1.5386,1.5365,1.5317,1.5265,1.5254,1.5243,1.5205,1.5192,1.5356,1.5355,1.5355,0,1.6153,1.6119,1.6086,1.6012,1.5979,1.5922,1.5954,1.5892,1.5849,1.5855,1.5775,1.5748,1.5695,1.5605,1.5563,1.5579,1.5426,1.547,1.5465,1.5459,1.5407,1.5394,1.5381,1.5542,1.5542,1.5543,0,0,1.6187,1.6134,1.6092,1.6018,1.5997,1.5969,1.5937,1.593,1.5884,1.5866,1.5832,1.5785,1.5727,1.5688,1.5632,1.5536,1.5523,1.5494,1.5485,1.5478,1.5469,1.5415,1.5402,1.5546,1.5546,1.5546,0,0,1.6203,1.6153,1.6158,1.607,1.6028,1.598,1.5934,1.5938,1.5886,1.5891,1.5873,1.5859,1.5775,1.5747,1.5789,1.5643,1.5677,1.5667,1.5664,1.5652,1.5643,1.5651,1.5812,0,0,0,0,0,1.623,1.6159,1.6165,1.6147,1.6051,1.5977,1.5965,1.595,1.5976,1.594,1.5912,1.5919,1.5766,1.5802,1.5783,1.5736,1.5583,1.5576,1.557,1.5543,1.5532,1.5522,0,0,0,0,0,0,1.6223,1.6201,1.6167,1.6116,1.6094,1.598,1.602,1.6014,1.5979,1.5982,1.5924,1.5917,1.5901,1.5811,1.5794,1.575,1.5818,1.558,1.5575,1.557,1.5539,1.553,1.5522,0,0,0,0,0,1.6217,1.6199,1.605,1.6117,1.6098,1.6062,1.6022,1.6018,1.599,1.5946,1.5939,1.5983,1.59,1.5885,1.5801,1.5758,1.583,1.5824,1.5577,1.5572,1.5568,1.5535,0,0,0,0,0,0,1.6213,1.6193,1.6046,1.604,1.6142,1.6068,1.6056,1.6021,1.5956,1.5949,1.6004,1.6007,1.5899,1.5887,1.5875,1.5762,1.5839,1.5833,1.5829,1.5573,1.557,1.5567,0,0,0,0,0,0,1.6203,1.6188,1.6043,1.6076,1.6073,1.6074,1.6063,1.5989,1.5955,1.6018,1.6018,1.6006,1.5916,1.5888,1.5879,1.5764,1.5847,1.5841,1.5836,1.5834,1.557,1.5568,0,0,0,0,0,0,1.6196,1.6183,1.6078,1.6076,1.6073,1.6,1.6008,1.5909,1.5988,1.602,1.5994,1.5997,1.5916,1.5907,1.5882,1.577,1.5765,1.5847,1.5842,1.5839,1.5837,0,0,0,0,0,0,0,1.6191,1.628,1.6084,1.6075,1.6073,1.5981,1.5979,1.5977,1.5988,1.5991,1.5993,1.5996,1.5882,1.5875,1.5868,1.5776,0,0,1.5847,1.5844,0,0,0,0,0,0,0,0,1.6285,1.6281,1.6084,1.6083,1.6081,1.598,1.5979,1.5977,1.5989,1.5991,1.5993,1.5995,1.588,1.5875,1.5869,0,0,0,0,0,0,0,0,0,0,0,0,0,0,0,1.6084,1.6083,0,1.598,1.5979,1.5978,1.5989,1.5991,1.5992,1.5994,1.5879,1.5874,1.587,0,0,0,0,0,0,0,0,0,0,0,0,0,0,0,0,0,0,0,0,0,0,0,0,0,0,0,0,0,0,0,0,0,0,0,0,0,0,0,0,0,0,0,0,0,0,0,0,0,0,0,0,0,0,0,0,0,0,0,0,0,0,0,0,0,0,0,0,0]}]]]